Location: Lac de la Montange Noire
(46.1952°N, 74.2701°W)
Time: 08:14:08
(UTC-04:00)

Iridium 42 - Visible Passes

Search period start: 05 May 2015 00:00
Search period end: 15 May 2015 00:00
Orbit: 776 x 778 km, 86.4° (Epoch: 04 May)

Date Brightness Start Highest point End Pass type
(mag) Time Alt. Az. Time Alt. Az. Time Alt. Az.
05 May 5.6 20:46:48 10° N 20:52:04 84° W 20:57:16 10° S visible
05 May 8.5 22:30:19 10° NW 22:32:01 11° WNW 22:33:25 10° W visible
06 May 8.0 21:54:53 10° NNW 21:58:40 20° W 22:02:18 10° SW visible
07 May 7.2 21:20:30 10° NNW 21:25:13 34° W 21:29:51 10° SSW visible
08 May 6.2 20:46:31 10° N 20:51:40 61° W 20:56:47 10° SSW visible
09 May 8.3 21:55:16 10° NW 21:58:08 15° WNW 22:00:46 10° WSW visible
10 May 7.8 21:20:29 10° NNW 21:24:44 25° W 21:28:52 10° SW visible
11 May 6.9 20:46:18 10° NNW 20:51:15 43° W 20:56:08 10° SSW visible
12 May 8.9 21:56:59 10° WNW 21:57:34 10° WNW 21:57:48 10° WNW visible
13 May 8.3 21:20:39 10° NW 21:24:13 18° W 21:27:37 10° WSW visible
